Regional Weather Roundup
Issued by NWS

Home | Current Version | Previous Version | Graphics & Text | Print | Product List | Glossary Off
Versions: 1 2 3 4 5 6 7 8 9 10 11 12 13 14 15 16 17 18 19 20 21 22 23 24 25 26 27 28 29 30 31 32 33 34 35 36 37 38 39 40 41 42 43 44 45 46 47 48 49 50

000
ASUS43 KDTX 201810
RWRMI
MICHIGAN HOURLY REGIONAL WEATHER ROUNDUP
NATIONAL WEATHER SERVICE DETROIT/PONTIAC MI
100 PM EST FRI JAN 20 2017

NOTE: "FAIR" INDICATES FEW OR NO CLOUDS BELOW 12,000 FEET WITH NO
SIGNIFICANT WEATHER AND/OR OBSTRUCTION TO VISIBILITY.

MIZ047>049-052>055-059>063-066>070-074>076-081>083-201900-
SOUTHEAST LOWER MICHIGAN

CITY           SKY/WX    TMP DP  RH WIND       PRES   REMARKS
ADRIAN         FOG       38  38 100 CALM      29.65S VSB 1/2
6HR MIN TEMP:  33; 6HR MAX TEMP:  38; 6HR PCP:  0.04;

ALMA           LGT RAIN  33  33  99 NE7       29.67F WCI  27
ANN ARBOR      CLOUDY    37  37 100 NE5       29.64S FOG     WCI  33
BAD AXE        CLOUDY    34  34 100 E6        29.69F FOG     WCI  29
6HR MIN TEMP:  32; 6HR MAX TEMP:  34;

CARO           LGT RAIN  35  34  96 E5        29.67F WCI  31
DETROIT CITY   FOG       37  37 100 E9        29.65F VSB 1   WCI  30
6HR MIN TEMP:  33; 6HR MAX TEMP:  37; 6HR PCP:  0.09;

DETROIT        FOG       38  37  97 NE3       29.65F VSB 3/4
6HR MIN TEMP:  34; 6HR MAX TEMP:  38; 6HR PCP:  0.14;

FLINT          LGT RAIN  35  34  96 E7        29.66F FOG     WCI  29
6HR MIN TEMP:  33; 6HR MAX TEMP:  35; 6HR PCP:  0.05;

GROSSE ILE     FOG       38  38  98 NE3       29.63F VSB 1
6HR MIN TEMP:  34; 6HR MAX TEMP:  38; 6HR PCP:  0.13;

HILLSDALE      FOG       37  37 100 S3        29.63R VSB 1
HOWELL         FOG       36  35  96 E3        29.64F VSB 1

CITY           SKY/WX    TMP DP  RH WIND       PRES   REMARKS
JACKSON        CLOUDY    37  36  96 E3        29.63F FOG
6HR MIN TEMP:  34; 6HR MAX TEMP:  37; 6HR PCP: TRACE;

LAMBERTVILLE   FOG       40  38  95 CALM      29.64S VSB 3/4
6HR MIN TEMP:  35; 6HR MAX TEMP:  40;

LANSING        CLOUDY    36  33  89 E5        29.66F FOG     WCI  32
6HR MIN TEMP:  34; 6HR MAX TEMP:  36; 6HR PCP:  0.12;

LAPEER         CLOUDY    34  34  99 E5        29.66F FOG     WCI  30
6HR MIN TEMP:  32; 6HR MAX TEMP:  34;

MASON          CLOUDY    35  35  99 NE6       29.63F FOG     WCI  30
MONROE         FOG       38  38 100 CALM      29.64S VSB 3/4
6HR MIN TEMP:  35; 6HR MAX TEMP:  38; 6HR PCP:  0.10;

MT. CLEMENS    DRIZZLE   36  36 100 NE6       29.64F FOG     WCI  32
6HR MIN TEMP:  33; 6HR MAX TEMP:  36; 6HR PCP:  0.07;

PONTIAC        DRZL/FOG  36  34  92 E6        29.63F VSB 1   WCI  31
6HR MIN TEMP:  32; 6HR MAX TEMP:  36; 6HR PCP:  0.07;

PORT HOPE        N/A     34  33  96 E9        29.69F WCI  27
6HR MIN TEMP:  33; 6HR MAX TEMP:  34;

PORT HURON     CLOUDY    36  36 100 E5        29.67F FOG     WCI  32
TRI CITIES     LGT RAIN  34  34 100 NE10      29.68F VSB 3/4 WCI  26
6HR MIN TEMP:  31; 6HR MAX TEMP:  34; 6HR PCP:  0.02;

MIDLAND        CLOUDY    34  33  95 NE8       29.68F FOG     WCI  28
6HR MIN TEMP:  32; 6HR MAX TEMP:  35;

TROY           CLOUDY    37  35  94 E8        29.67F FOG     WCI  30
SAGINAW HB     MIX PCPN  34  32  93 NE6       29.67F WCI  29
$$
MIZ043>046-050>051-056>058-064>065-071>073-077>080-201900-
SOUTHWEST LOWER MICHIGAN

CITY           SKY/WX    TMP DP  RH WIND       PRES   REMARKS
BATTLE CREEK   CLOUDY    37  36  96 VRB3      29.65S FOG
6HR MIN TEMP:  36; 6HR MAX TEMP:  37; 6HR PCP:  0.05;

BENTON HARBOR  CLOUDY    40  38  93 SE3       29.64F FOG
6HR MIN TEMP:  38; 6HR MAX TEMP:  41; 6HR PCP:  0.01;

BIG RAPIDS     MIX PCPN  34  32  92 E3        29.65F
6HR MIN TEMP:  32; 6HR MAX TEMP:  34;

COLDWATER      CLOUDY    39  39 100 CALM      29.63F FOG
6HR MIN TEMP:  35; 6HR MAX TEMP:  39;

FREMONT        DRIZZLE   35  35 100 E5        29.66S WCI  31
HOLLAND        CLOUDY    37  35  92 E6        29.66F WCI  32
6HR MIN TEMP:  36; 6HR MAX TEMP:  37; 6HR PCP:  0.08;

GRAND RAPIDS   CLOUDY    35  33  92 E5        29.66S FOG     WCI  31
6HR MIN TEMP:  34; 6HR MAX TEMP:  35; 6HR PCP:  0.09;

IONIA          CLOUDY    33  33  99 E8        29.65F FOG     WCI  27
6HR MIN TEMP:  32; 6HR MAX TEMP:  34; 6HR PCP:  0.03;

KALAMAZOO      CLOUDY    38  35  89 SE5       29.65F FOG     WCI  34
6HR MIN TEMP:  37; 6HR MAX TEMP:  38; 6HR PCP:  0.03;

LUDINGTON      CLOUDY    39  33  78 E5        29.66F
6HR MIN TEMP:  33; 6HR MAX TEMP:  40; 6HR PCP:  0.01;

MARSHALL       CLOUDY    37  36  98 CALM      29.65R FOG
6HR MIN TEMP:  35; 6HR MAX TEMP:  37; 6HR PCP:  0.04;

MOUNT PLEASANT LGT RAIN  33  32  97 E3        29.66F
6HR MIN TEMP:  31; 6HR MAX TEMP:  33;

MUSKEGON       LGT RAIN  37  35  92 E5        29.67F VSB 1   WCI  33
6HR MIN TEMP:  36; 6HR MAX TEMP:  37; 6HR PCP:  0.07;

SOUTH HAVEN    CLOUDY    38  38  97 E6        29.63F FOG     WCI  34
$$
MIZ016>042-201900-
NORTHERN LOWER MICHIGAN

CITY           SKY/WX    TMP DP  RH WIND       PRES   REMARKS
ALPENA         FOG       34  32  92 E8        29.73F VSB 1/4 WCI  27
6HR MIN TEMP:  32; 6HR MAX TEMP:  34;

BEAVER ISLAND  FOG       32  32 100 E10       29.70F VSB 1   WCI  23
6HR MIN TEMP:  31; 6HR MAX TEMP:  32;

BELLAIRE       CLOUDY    37  32  85 NE3       29.68F
6HR MIN TEMP:  30; 6HR MAX TEMP:  37;

CADILLAC       CLOUDY    35  32  88 E5        29.64F WCI  31
CHARLEVOIX     CLOUDY    34  34 100 E6        29.72F WCI  29
FRANKFORT      CLOUDY    40  34  79 CALM      29.67R
GAYLORD        CLOUDY    34  30  85 NE6       29.66F WCI  29
6HR MIN TEMP:  32; 6HR MAX TEMP:  34;

GRAYLING       CLOUDY    35  32  90 E9        29.68F WCI  28
6HR MIN TEMP:  32; 6HR MAX TEMP:  35;

HARBOR SPRINGS CLOUDY    32  32 100 E9        29.71F FOG     WCI  24
HOUGHTON LAKE  CLOUDY    35  31  85 E10       29.66F WCI  27
6HR MIN TEMP:  31; 6HR MAX TEMP:  35;

MANISTEE       CLOUDY    39  34  82 CALM      29.66F
OSCODA         CLOUDY    35  34  97 E6        29.71F FOG     WCI  30
6HR MIN TEMP:  34; 6HR MAX TEMP:  35;

PELLSTON       CLOUDY    32  30  92 E8        29.71F FOG     WCI  25
6HR MIN TEMP:  31; 6HR MAX TEMP:  32;

ROGERS CITY    CLOUDY    33  32  96 E10       29.74F FOG     WCI  25
TRAVERSE CITY  CLOUDY    37  33  85 N5        29.67F FOG     WCI  33
6HR MIN TEMP:  32; 6HR MAX TEMP:  37; 6HR PCP: TRACE;

$$
MIZ007>008-015-201900-
EASTERN UPPER MICHIGAN

CITY           SKY/WX    TMP DP  RH WIND       PRES   REMARKS
KINROSS        FOG       34  34 100 E7        29.71F VSB 3/4 WCI  28
6HR MIN TEMP:  32; 6HR MAX TEMP:  34; 6HR PCP: TRACE;

MACKINAC ISLAN CLOUDY    33  33 100 E7        29.71F FOG     WCI  26
6HR MIN TEMP:  31; 6HR MAX TEMP:  33;

NEWBERRY       FOG       32  31  96 E6        29.71F VSB 1/2 WCI  26
6HR MIN TEMP:  32; 6HR MAX TEMP:  32;

S. S. MARIE    CLOUDY    35  33  92 E6        29.72F FOG     WCI  30
6HR MIN TEMP:  34; 6HR MAX TEMP:  35;

MUNISING         N/A     34  32  92 VRB6      29.69F WCI  29
6HR MIN TEMP:  33; 6HR MAX TEMP:  34;

$$
MIZ004>006-011>014-085-201900-
CENTRAL UPPER MICHIGAN

CITY           SKY/WX    TMP DP  RH WIND       PRES   REMARKS
MANISTIQUE     CLOUDY    32  32  99 NE6       29.69F FOG     WCI  27
6HR MIN TEMP:  31; 6HR MAX TEMP:  32;

ESCANABA       CLOUDY    34  34 100 NE3       29.70F FOG
6HR MIN TEMP:  32; 6HR MAX TEMP:  34;

SAWYER-GWINN   FOG       32  32 100 SW6       29.68F VSB 1/2 WCI  26
$$
MIZ001>003-009>011-084-201900-
WESTERN UPPER MICHIGAN

CITY           SKY/WX    TMP DP  RH WIND       PRES   REMARKS
IRON MOUNTAIN  CLOUDY    33  30  88 CALM      29.66F FOG
6HR MIN TEMP:  30; 6HR MAX TEMP:  33;

HOUGHTON       CLOUDY    35  29  78 E3        29.66F
6HR MIN TEMP:  20; 6HR MAX TEMP:  35;

COPPER HARBOR    N/A     37  32  82 VRB7      29.67F WCI  32
6HR MIN TEMP:  27; 6HR MAX TEMP:  38;

IRONWOOD       CLOUDY    37  31  78 E6        29.66F WCI  32
6HR MIN TEMP:  32; 6HR MAX TEMP:  38; 6HR PCP: TRACE;

$$

ABBREVIATIONS USED IN REMARKS
   TC - TEMPERATURE IN CELSIUS
  WCI - WIND CHILL INDEX
   HX - HEAT INDEX
  VSB - VISIBILITY





USA.gov is the U.S. government's official web portal to all federal, state and local government web resources and services.